Volver al catálogo

COSMOS 2090

ActivoMilitarPO
NORAD 20735·PAYLOAD·🇷🇺 Russia

Lanzado Aug 8, 1990 desde Plesetsk Cosmodrome

Loading…

Próximos Pases (próximas 24 horas)

TLE

ActualizadoSource: Space-Track

Época: Sep 14, 2026, 20:26 UTC

1 20735U 90070A   26257.85202284  .00000016  00000-0  26736-4 0  9991
2 20735  82.5665 214.5541 0013247 216.4655 169.6925 12.65368357667271

Sigue COSMOS 2090 en tiempo real con AllMySat

Download on the App Store